Location: Anaheim Mobile Home Estates
(33.8153°N, 117.9967°W)
Time: 05:41:19
(UTC+00:00)

Tiangong - Visible Passes

Search period start: 09 July 2025 00:00
Search period end: 19 July 2025 00:00
Orbit: 384 x 403 km, 41.5° (Epoch: 08 July)

Date Brightness Start Highest point End Pass type
(mag) Time Alt. Az. Time Alt. Az. Time Alt. Az.
09 Jul 0.2 10:30:43 20° NNW 10:31:30 22° N 10:34:07 10° NE visible
09 Jul 0.2 12:06:22 10° NW 12:09:11 25° NNE 12:11:59 10° ENE visible
10 Jul 1.1 09:36:34 15° NE 09:36:34 15° NE 09:37:22 10° NE visible
10 Jul 0.4 11:09:37 10° NW 11:12:16 22° N 11:14:54 10° ENE visible
11 Jul 0.4 10:14:55 20° N 10:15:18 20° N 10:17:52 10° NE visible
11 Jul -0.5 11:49:49 10° NW 11:52:54 36° NNE 11:55:58 10° E visible
12 Jul 0.0 10:53:26 12° NW 10:55:59 27° NNE 10:58:50 10° ENE visible
13 Jul 0.6 09:59:49 21° NNE 09:59:49 21° NNE 10:01:40 10° ENE visible
13 Jul -1.7 11:33:07 10° WNW 11:36:23 65° NNE 11:39:38 10° ESE visible
14 Jul -0.8 10:39:05 39° N 10:39:29 41° NNE 10:42:36 10° E visible
14 Jul -1.3 12:13:30 10° W 12:16:27 31° SW 12:19:24 10° SSE visible
15 Jul -2.1 11:19:01 47° W 11:19:39 59° SSW 11:22:52 10° SE visible
16 Jul -0.6 03:51:09 10° S 03:53:29 19° SE 03:54:54 15° ESE visible
16 Jul 0.8 05:27:06 10° WSW 05:27:25 12° WSW 05:27:25 12° WSW visible
16 Jul -0.2 11:59:39 15° SW 11:59:39 15° SW 12:01:21 10° S visible
17 Jul -2.3 04:30:08 10° WSW 04:33:20 78° SSE 04:34:54 28° ENE visible
18 Jul -1.7 03:33:23 10° SW 03:36:25 41° SSE 03:39:30 10° ENE visible
18 Jul -0.5 05:10:30 10° W 05:13:29 34° NNW 05:14:09 31° N visible
